Theta_e
325 320 316 315 314 312 310 304 295 296 288 287 286 286 290 295 294 293 294 295 294 298 301 301 300 300 299 298 302 306 308 297 303 288 291 301 317 325 328 337 342 345 346 347 347 348 348 348 351 352 352 352 352 352 352 351 350 350 350 349 349 349 350 350 350 350 350 350 350 349 349 349 348 348 349 349 349 349 348 347 346 346 345 345 344 344 343 342 341 340 338 337 335 334 336 338 339
323 320 317 318 315 312 306 299 291 286 285 285 288 288 293 293 293 293 293 295 296 300 298 300 304 307 308 309 310 307 307 311 311 303 316 320 324 321 327 333 344 345 346 347 348 348 347 347 348 351 350 351 352 352 352 351 351 350 350 349 349 349 350 350 350 350 350 350 349 348 348 348 348 348 348 348 348 348 348 347 346 345 345 344 343 344 343 342 340 339 338 336 333 333 335 337 338
324 319 317 314 312 308 304 296 292 283 283 281 286 288 292 292 292 293 296 297 298 298 297 298 299 299 300 302 303 301 299 314 317 315 317 322 318 323 325 331 338 345 347 347 348 347 348 347 346 350 351 351 352 352 352 351 351 350 350 350 349 348 350 350 350 350 350 350 348 347 347 346 347 346 347 347 347 348 347 347 346 345 344 344 344 343 343 341 340 338 337 336 333 333 336 337 337
319 318 317 309 308 302 296 293 288 285 286 283 285 291 291 292 293 295 296 298 298 297 299 299 298 299 301 301 302 303 302 311 318 316 317 317 318 324 328 332 333 346 346 347 348 347 347 346 346 351 352 350 351 352 352 351 351 350 350 350 350 348 348 348 349 349 349 349 349 347 346 346 346 346 346 347 347 346 347 347 346 345 344 344 344 343 343 341 340 338 336 335 333 333 335 336 336
314 319 315 307 303 303 295 291 286 283 284 283 285 289 292 292 295 294 297 297 296 296 298 298 296 301 303 303 302 297 301 307 313 320 319 319 322 326 329 331 333 344 345 346 347 347 347 345 346 348 351 351 351 352 352 351 351 350 350 349 348 348 348 348 348 349 349 348 348 348 347 346 346 346 345 346 347 346 346 346 346 345 344 344 344 343 343 341 339 337 336 334 332 333 334 333 334
313 312 315 309 302 304 294 287 289 285 287 287 287 290 292 294 295 294 296 296 296 296 296 297 297 298 305 308 308 305 313 309 314 319 319 321 326 328 331 331 336 343 343 345 347 347 346 343 346 347 350 348 351 351 351 351 351 350 349 348 348 348 348 348 348 349 348 348 348 348 348 347 345 345 345 345 346 346 345 345 346 345 344 343 343 343 343 341 340 338 336 334 331 331 332 332 332
313 307 306 303 303 299 291 286 286 285 292 290 291 292 293 293 295 293 296 296 297 297 297 300 304 302 302 306 308 314 317 318 319 320 321 324 325 329 331 336 337 341 342 344 345 345 345 344 348 352 351 349 350 351 351 351 351 350 349 348 348 347 347 348 348 348 348 348 347 348 347 347 346 345 344 345 345 346 345 345 345 345 343 342 342 342 342 341 339 337 335 334 331 330 330 330 332
313 306 303 296 295 291 288 287 288 286 292 291 292 294 292 293 293 294 294 292 295 295 296 300 299 296 298 304 302 314 315 316 321 322 324 325 326 328 331 337 341 343 344 345 345 345 345 343 348 349 349 351 350 347 351 351 351 350 350 349 348 348 348 347 347 347 348 348 347 347 347 347 346 345 345 345 345 345 345 344 344 343 343 342 342 341 341 340 338 337 335 334 331 329 328 329 331
310 305 302 297 291 289 286 288 290 289 293 294 294 295 300 294 292 293 294 294 295 294 296 297 295 295 297 303 303 307 309 310 315 321 323 325 326 327 332 335 341 342 344 345 346 346 346 342 344 347 348 349 348 348 348 350 349 350 350 349 348 348 348 347 347 347 347 347 346 347 347 346 345 345 345 345 345 344 344 344 343 343 343 342 340 340 339 338 337 336 335 333 330 327 327 328 330
306 301 296 295 290 288 284 288 286 291 292 293 293 295 295 294 295 293 294 295 295 294 297 297 295 295 298 300 302 301 305 306 310 316 317 324 326 328 329 330 334 340 342 343 343 343 343 344 341 343 345 348 349 349 348 348 346 347 349 349 348 348 348 349 347 347 347 346 346 346 346 346 346 345 345 345 345 344 343 343 343 342 342 341 339 339 337 336 336 336 334 331 328 325 325 327 329
297 297 299 291 287 285 287 286 288 292 293 294 294 296 296 295 294 294 294 295 295 296 297 298 299 297 296 296 296 302 303 302 306 309 311 323 325 327 328 328 328 333 337 338 340 341 342 342 339 340 343 345 347 348 347 348 347 347 348 347 347 348 348 348 347 347 347 346 346 346 346 346 346 345 345 344 344 344 343 343 343 342 341 340 339 338 336 335 335 334 333 330 326 324 324 326 328
294 294 291 287 289 287 285 288 289 291 292 293 295 294 296 296 295 295 294 296 296 295 297 297 298 297 295 295 296 299 300 302 303 306 316 324 325 324 326 327 327 326 329 331 334 337 340 341 343 340 338 339 342 345 346 347 347 346 347 346 346 346 347 347 348 347 347 346 345 345 345 346 346 345 344 344 344 342 342 343 341 341 340 340 339 338 336 334 333 333 331 328 324 322 323 325 326
294 292 288 286 289 287 288 288 289 290 291 292 294 298 295 295 295 294 294 293 294 295 296 298 298 297 295 295 297 300 299 302 302 306 317 322 321 321 322 322 321 319 319 321 326 330 333 336 338 341 336 332 335 337 340 342 345 346 346 346 346 346 346 347 347 347 346 346 345 345 345 345 345 344 344 343 343 342 342 342 342 341 340 339 338 337 336 335 334 333 330 327 323 320 321 324 324
294 294 288 290 286 288 287 287 288 288 288 291 292 295 296 295 296 294 295 295 295 294 298 299 298 296 295 296 298 297 297 300 300 305 316 320 319 316 315 314 313 314 315 315 315 317 320 325 334 338 339 341 339 333 332 338 341 345 344 344 344 345 345 346 346 346 346 345 344 344 343 343 344 345 344 344 343 343 342 341 342 341 340 339 338 337 336 335 333 332 330 327 323 321 322 323 323
298 294 288 287 284 287 289 287 290 286 288 291 295 297 296 298 295 295 296 293 296 298 298 299 300 297 293 295 294 296 298 302 302 308 318 317 315 312 311 311 312 312 313 314 315 315 317 319 321 327 333 337 337 337 337 337 335 339 341 341 340 342 343 343 342 341 341 343 343 340 339 338 336 338 339 341 341 339 337 336 341 341 341 339 337 336 335 334 333 332 330 327 325 322 322 322 322
299 293 288 289 286 286 290 289 288 288 290 293 294 294 295 298 295 297 297 296 297 298 297 297 299 297 297 295 296 298 300 300 304 308 316 314 310 309 309 309 310 311 311 312 313 314 315 317 319 320 322 330 335 337 337 335 331 332 336 337 337 337 338 337 336 335 333 335 335 334 331 330 328 330 328 333 333 338 336 333 337 338 340 338 337 336 335 334 334 333 330 328 326 323 322 321 322
298 291 287 283 287 286 288 289 289 288 289 293 294 296 296 295 298 298 298 297 297 296 296 297 297 298 296 297 299 300 304 306 310 313 312 309 305 305 305 306 307 308 310 311 312 312 313 315 317 319 319 320 326 334 334 333 334 328 330 329 332 335 336 334 334 326 324 323 326 323 325 335 335 333 329 333 326 331 326 328 333 338 340 338 337 336 336 335 334 333 332 329 325 322 321 319 319
295 290 283 285 287 289 291 289 290 291 294 293 294 293 293 294 297 299 297 297 295 295 296 296 298 297 298 299 300 303 304 305 306 308 305 303 302 302 304 304 305 305 306 308 311 312 312 312 314 316 317 318 320 328 333 338 335 332 338 335 334 333 329 327 329 333 331 331 321 328 335 334 335 334 333 332 332 327 323 325 330 337 339 336 337 337 336 335 334 334 332 330 327 325 320 307 306
292 288 285 288 286 292 293 294 292 293 294 293 294 294 294 295 295 298 295 294 295 294 294 294 295 297 299 300 301 302 304 303 304 303 302 302 301 302 302 303 304 304 306 306 309 311 310 311 314 314 315 317 319 321 328 336 337 339 339 337 337 330 331 330 332 331 335 333 331 332 332 336 336 335 334 332 332 323 327 323 328 333 335 334 335 337 336 335 334 334 333 331 328 323 310 308 306
296 289 287 288 289 295 294 295 296 294 294 294 294 296 294 297 297 298 296 292 294 293 293 294 294 296 297 299 300 301 302 302 303 303 302 301 301 302 302 302 303 302 304 305 306 310 310 310 311 313 314 315 318 319 322 329 337 339 338 338 337 335 333 332 332 333 335 335 334 331 330 329 329 332 326 326 327 328 325 322 326 328 330 330 330 332 333 335 334 333 331 327 320 316 312 309 307
295 289 287 292 291 293 297 295 296 294 294 294 294 294 295 296 295 297 292 294 293 293 294 295 295 296 297 298 298 299 301 301 301 302 301 301 301 302 303 303 302 304 304 306 307 309 308 309 309 311 312 314 317 319 321 325 327 337 337 337 337 336 335 335 335 335 335 334 333 332 331 329 330 331 330 328 328 329 328 329 328 329 332 332 327 331 329 328 324 321 322 320 317 315 313 310 309
291 293 291 291 292 294 296 296 296 294 293 293 292 294 295 297 297 293 293 292 290 295 296 295 296 298 298 298 298 299 299 300 300 301 301 300 300 300 302 302 304 303 304 307 307 309 308 309 308 309 310 313 316 318 319 322 330 333 335 336 335 335 334 333 332 332 332 333 333 331 329 329 329 329 330 329 327 329 329 328 328 326 326 328 329 329 327 325 322 322 324 323 319 317 314 310 308
293 294 293 293 293 295 295 295 295 294 295 293 293 295 296 295 295 294 293 294 292 294 295 296 298 298 299 299 298 298 298 298 299 299 300 300 299 300 301 302 303 304 304 308 310 309 308 309 311 309 310 314 316 319 325 327 329 331 331 331 330 330 330 329 329 329 330 331 331 329 328 327 327 328 328 328 327 328 327 328 328 326 326 326 325 326 324 324 324 323 324 323 320 316 313 312 309
293 293 294 297 294 296 295 297 293 290 293 294 294 295 296 294 295 295 294 295 295 295 295 297 297 298 299 298 298 298 298 298 299 300 300 300 300 300 301 302 304 306 307 308 309 310 310 313 314 312 313 315 318 328 327 327 327 326 325 324 325 324 325 325 326 326 327 327 328 328 326 327 326 325 325 324 324 324 324 325 325 326 327 327 326 327 325 324 323 322 322 321 320 318 317 315 313
293 295 295 296 296 296 295 294 293 293 295 294 295 295 295 293 295 294 294 294 295 295 295 296 297 297 297 297 297 297 298 298 299 299 299 299 299 300 299 301 305 307 307 308 309 310 312 313 315 314 318 324 327 327 326 325 324 323 323 322 320 320 319 319 319 321 322 323 325 326 325 324 323 323 322 322 322 322 322 322 322 323 324 324 324 323 323 322 321 321 320 319 318 317 316 315 313
295 296 294 295 296 296 295 295 294 294 296 294 296 293 292 292 295 294 293 294 294 294 295 295 295 295 296 296 296 297 298 298 298 298 299 297 298 300 299 303 305 306 307 307 308 310 312 315 315 316 322 324 324 324 323 322 321 319 318 317 316 315 315 315 315 315 317 318 319 322 322 322 321 320 319 319 319 319 320 320 320 320 320 321 321 320 321 321 319 319 318 318 317 316 315 314 314
295 294 295 296 296 295 295 295 295 293 296 294 295 293 295 293 295 292 294 295 294 294 294 293 294 294 295 295 295 295 297 297 297 297 297 296 297 298 300 304 305 305 307 307 308 310 312 315 314 317 320 320 320 319 317 316 315 314 314 314 313 312 312 313 313 314 314 314 315 317 319 318 318 317 316 315 316 316 316 316 317 317 316 317 318 317 317 318 317 316 316 315 314 313 311 312 312
295 295 296 295 292 294 294 294 293 295 296 293 295 293 292 292 294 292 293 294 294 294 293 292 292 293 294 294 294 294 296 295 296 296 296 296 296 298 300 303 304 305 305 306 307 309 312 312 312 314 317 316 315 313 312 312 311 311 311 310 310 310 310 310 311 311 311 312 313 313 313 314 314 313 312 312 312 312 311 311 312 312 313 313 313 313 312 312 312 310 308 308 308 306 305 305 306
296 296 294 291 291 295 294 295 294 294 295 293 294 294 292 291 291 291 293 294 294 293 293 292 292 292 293 293 293 294 294 294 294 295 296 296 296 298 302 304 304 304 305 306 309 309 310 310 309 310 312 312 311 310 310 310 309 309 308 307 307 308 307 307 307 308 309 310 311 310 310 310 310 309 309 308 308 308 308 308 308 308 309 310 309 307 306 306 305 304 303 302 302 302 302 302 303
297 294 292 292 290 290 293 295 293 294 295 292 295 287 286 289 293 292 294 294 293 292 292 292 291 292 292 292 293 293 293 293 293 295 295 295 296 299 302 303 303 304 305 307 308 308 309 310 309 309 308 309 309 308 308 307 307 306 306 305 305 305 304 304 304 305 306 307 308 308 308 307 307 307 307 306 306 305 305 304 304 304 305 306 306 303 301 300 299 300 300 298 298 298 297 297 299
294 292 290 288 287 286 292 293 292 295 294 293 294 287 288 290 290 291 293 294 293 292 292 292 291 292 292 292 292 293 293 293 294 294 295 295 296 299 302 302 303 304 306 306 306 307 307 308 308 307 306 305 306 306 306 305 305 304 304 303 303 302 301 301 301 302 303 304 305 305 305 304 304 305 304 303 302 302 301 301 301 301 302 302 302 301 298 297 296 296 296 294 294 294 294 295 296
290 289 286 283 287 285 291 293 293 294 293 293 294 286 291 294 293 292 293 293 293 292 292 292 291 292 292 292 292 292 293 293 294 294 295 295 297 299 300 300 301 304 305 306 306 306 305 306 306 305 305 305 304 304 304 303 303 302 301 302 300 300 299 298 298 299 300 301 302 302 302 302 302 302 301 300 298 298 298 298 297 298 299 299 299 299 299 297 295 294 294 293 291 291 292 293 294
285 289 283 284 286 285 290 294 293 294 291 293 293 289 287 291 289 291 292 292 292 291 291 291 292 292 292 292 292 292 292 292 292 293 293 295 296 298 298 300 302 304 306 306 306 305 304 304 304 304 303 303 302 302 301 300 299 299 299 298 298 298 297 296 296 297 298 298 298 299 299 299 298 298 298 297 295 295 294 294 294 295 296 296 297 297 297 297 295 293 292 292 290 289 290 291 293
283 285 286 284 287 286 287 289 293 292 293 290 291 289 290 291 289 291 292 292 291 291 291 292 292 292 292 292 292 292 292 292 292 292 293 294 296 297 298 302 303 304 306 306 306 305 303 303 303 303 303 302 301 300 299 298 298 297 296 296 296 295 295 294 294 294 294 294 294 294 295 295 295 294 294 293 292 292 292 292 292 292 293 293 292 293 293 294 294 292 290 290 289 288 288 289 292
282 287 286 287 287 287 289 289 292 292 292 290 289 289 291 293 291 290 292 292 292 292 292 292 292 292 292 292 292 292 291 291 292 293 293 294 295 297 298 302 303 304 306 305 305 305 304 303 303 302 302 301 299 298 297 297 296 296 295 295 294 293 293 292 292 292 292 292 292 292 292 292 292 292 291 291 291 291 290 290 290 290 291 290 290 289 289 290 290 290 288 287 288 287 287 287 289
287 286 286 284 287 287 288 290 291 293 289 289 288 289 291 292 293 292 290 292 292 292 291 290 291 291 292 292 292 292 291 291 292 293 293 294 295 297 298 300 303 304 305 304 304 304 303 302 302 301 301 300 299 298 297 296 295 294 293 293 292 292 291 291 291 291 291 291 291 291 291 291 291 291 290 290 290 289 289 289 289 289 289 289 288 287 287 287 287 288 287 286 286 287 287 287 287
289 288 287 287 287 288 289 290 291 291 290 288 290 290 291 291 292 293 291 291 291 291 291 291 291 292 291 291 292 292 291 291 291 293 293 294 295 298 298 299 302 302 304 304 304 303 303 302 301 300 300 300 299 298 297 295 293 293 293 292 290 290 290 290 289 289 290 290 290 290 290 290 290 290 289 289 289 289 288 288 288 288 288 288 287 287 286 287 287 287 286 287 286 285 285 286 286
291 289 287 287 286 288 290 292 292 292 291 285 287 288 289 291 292 292 291 290 291 291 292 292 292 292 292 292 291 292 291 290 291 291 292 292 295 297 297 298 300 301 301 302 302 302 302 302 301 300 300 299 299 298 296 295 294 293 291 290 289 289 288 288 288 288 289 289 289 289 289 289 289 289 289 288 288 288 287 287 287 286 287 287 287 287 286 287 286 286 285 285 285 285 284 284 285
289 288 287 285 288 287 291 290 290 291 290 289 287 288 291 292 293 293 291 292 293 294 294 294 293 292 292 291 291 291 290 290 291 292 292 292 294 296 295 298 300 301 300 300 300 300 300 299 299 298 297 296 295 295 294 292 291 291 290 289 288 287 287 288 288 288 288 287 287 287 287 287 288 287 287 288 287 287 286 286 286 286 286 286 286 285 285 285 285 285 284 283 283 284 284 285 284
288 287 286 287 286 288 285 287 288 292 291 287 286 288 290 292 292 293 294 294 293 294 294 294 294 294 292 292 292 291 290 290 290 291 291 292 293 294 294 297 300 300 299 299 298 298 298 297 295 295 294 294 294 293 292 291 290 289 289 289 288 288 286 287 287 286 286 286 286 286 286 286 286 286 286 286 286 286 286 286 285 285 285 285 285 284 284 284 284 284 284 284 282 282 281 283 284
286 289 287 286 287 287 289 288 290 288 289 289 289 289 291 293 293 294 294 291 292 293 292 292 292 292 293 292 291 292 291 291 290 290 291 291 292 292 295 297 298 298 298 298 297 297 297 295 295 294 293 293 292 292 290 290 289 288 288 288 287 286 286 285 285 284 285 286 285 285 285 285 286 286 286 286 286 285 285 285 285 285 285 284 285 284 283 283 283 283 283 283 282 281 280 280 283
286 287 290 291 290 289 287 288 289 283 284 285 289 282 281 283 288 291 292 289 290 291 291 292 292 292 291 291 291 291 291 292 291 291 292 292 292 292 293 295 296 297 297 298 298 297 295 294 293 292 292 291 290 290 289 289 288 287 286 285 284 284 283 283 283 283 283 283 283 283 284 285 285 285 285 285 285 285 284 285 284 284 284 284 284 284 283 283 283 282 282 282 281 281 280 279 279
285 287 289 291 290 288 288 287 287 281 281 287 289 285 283 283 289 289 288 286 290 290 289 291 291 291 290 292 291 291 291 290 290 291 292 291 291 291 293 294 295 295 296 296 296 294 293 292 292 291 290 290 290 289 289 289 287 287 286 285 285 284 283 282 283 283 284 283 284 283 283 284 284 284 284 284 284 284 284 284 284 284 283 283 284 283 282 282 282 282 282 282 281 283 280 279 278
285 286 288 289 289 288 287 287 288 283 282 286 286 283 282 286 289 292 295 294 294 294 292 290 290 290 290 291 291 291 291 290 291 291 291 292 292 292 292 294 294 295 294 294 293 293 292 291 290 290 290 290 290 289 288 288 287 286 285 284 284 284 284 283 283 283 284 284 283 283 283 283 283 283 284 283 283 284 283 283 283 283 283 283 283 282 282 281 282 282 282 282 282 281 280 279 278
286 289 289 288 289 287 287 287 284 284 284 282 283 285 284 283 284 286 289 289 291 293 294 293 291 290 290 290 290 291 291 290 291 291 291 291 292 292 292 292 293 293 293 294 293 292 292 291 290 289 289 289 288 288 287 286 287 286 285 285 284 284 284 284 284 285 284 283 283 282 283 282 283 283 283 283 282 283 283 283 282 282 282 282 282 282 281 281 280 280 281 281 281 281 281 280 279
290 289 289 288 287 285 283 282 286 282 281 282 284 286 283 286 285 287 284 288 290 292 295 295 292 291 290 290 290 290 290 290 290 291 292 292 292 291 291 291 291 292 293 293 292 292 291 290 289 288 287 288 288 287 287 286 286 286 285 284 284 284 284 283 283 283 282 282 282 282 281 282 281 282 282 282 282 282 282 282 282 282 281 282 282 280 280 280 280 280 280 280 280 280 280 280 279
291 289 290 287 284 282 280 280 281 282 278 284 285 286 287 283 284 288 288 289 291 293 292 290 289 290 290 290 290 290 290 289 290 290 291 291 291 290 290 290 290 291 291 291 291 291 290 289 288 287 287 287 287 286 286 286 285 285 285 284 284 283 283 283 282 282 282 282 281 281 281 281 281 281 281 281 281 281 281 282 281 281 281 282 281 280 279 279 279 279 279 279 279 279 278 279 280
293 286 283 284 285 280 277 275 277 276 279 282 286 287 287 282 280 284 290 289 288 291 291 290 288 289 290 290 289 290 289 289 289 290 289 289 288 288 289 290 290 290 290 290 289 289 289 288 288 287 286 286 286 286 286 285 285 285 285 285 284 284 284 283 282 282 282 281 281 281 280 280 280 280 280 280 280 280 280 280 280 280 280 279 279 279 279 279 279 278 278 278 278 278 279 279 277
289 287 288 283 276 275 275 273 275 277 279 281 281 285 282 285 290 286 289 291 292 291 291 291 290 289 290 290 290 289 289 288 289 289 289 288 288 288 288 289 289 289 289 289 289 288 288 288 287 287 286 285 286 286 285 285 285 285 285 285 284 284 284 283 283 282 282 282 281 281 280 280 279 279 279 279 279 279 280 279 279 279 279 280 279 279 278 278 278 278 278 277 277 277 277 278 277
287 288 285 281 275 274 270 271 270 273 277 280 281 283 284 282 287 293 296 298 297 294 291 291 291 291 290 290 290 289 288 288 289 289 289 288 288 288 288 289 289 289 289 289 288 288 287 287 287 287 285 285 285 285 285 285 285 285 285 285 285 285 283 283 283 283 282 282 282 281 280 280 280 279 279 279 279 280 280 280 279 279 279 278 279 278 278 278 278 278 277 277 277 277 277 277 277
290 288 290 286 281 273 272 273 276 277 276 277 279 280 277 279 285 287 292 291 287 285 287 288 289 290 289 289 289 288 287 287 288 288 288 288 288 288 288 288 288 288 288 288 287 287 287 286 286 286 285 284 285 285 285 285 285 284 284 284 285 284 284 283 283 283 282 282 281 281 280 280 280 279 280 280 280 279 279 279 279 278 278 278 278 278 279 278 278 278 278 277 277 276 277 277 277
285 284 286 283 285 283 284 276 274 273 273 273 275 281 281 286 286 288 286 286 287 286 286 287 288 287 287 287 288 288 288 287 287 287 287 287 288 288 288 288 288 288 287 287 287 287 286 286 286 286 285 285 285 285 285 285 285 285 284 284 284 284 284 283 283 283 282 282 281 281 280 280 280 280 280 280 280 279 279 279 278 278 278 278 277 277 277 278 277 277 276 276 276 278 276 276 276
285 288 286 287 286 288 283 276 277 277 273 280 275 280 282 284 290 292 292 286 288 286 286 286 286 285 286 287 288 288 288 287 287 287 287 287 287 287 288 287 287 287 287 287 287 286 286 286 285 285 285 285 285 285 285 285 285 284 284 284 283 283 283 283 283 282 281 281 281 281 281 280 280 280 280 280 279 279 279 278 278 277 277 277 277 276 277 277 277 276 276 275 275 275 276 275 275
287 283 286 288 288 286 283 279 272 269 274 277 279 282 282 280 284 284 288 286 289 287 287 285 285 284 286 287 287 288 288 287 287 287 287 287 287 287 287 287 287 288 287 287 286 286 286 286 286 285 285 285 285 285 285 285 285 285 284 283 283 283 283 282 282 281 281 281 280 280 280 280 280 280 280 280 279 279 279 279 277 277 276 276 276 276 276 276 276 276 275 275 275 275 275 275 276
289 286 289 290 282 281 281 276 277 273 275 276 276 279 282 284 286 283 286 287 290 291 288 284 285 284 286 286 286 286 286 286 286 286 286 286 286 286 287 286 287 287 287 286 285 285 285 285 285 286 285 285 285 285 285 285 285 285 285 284 283 283 282 282 282 281 281 281 280 280 280 280 280 280 280 279 278 278 277 277 277 276 276 276 275 275 275 275 275 275 275 275 274 274 274 274 274
288 290 289 286 283 276 279 283 275 277 273 269 278 277 282 285 286 287 290 289 290 292 287 287 288 288 287 287 287 286 286 287 286 286 286 286 286 286 286 286 286 286 286 285 284 284 284 284 285 285 285 284 284 284 284 284 285 285 284 283 283 283 282 282 282 281 281 281 281 280 280 279 280 279 278 278 278 277 277 276 276 276 275 275 275 275 275 274 274 274 275 274 274 273 273 273 273
284 286 284 287 283 285 283 282 281 279 271 270 275 279 283 284 289 289 292 291 291 291 291 291 290 288 287 287 287 287 287 287 287 287 286 286 286 285 285 286 286 286 285 284 284 284 284 284 285 285 284 284 284 284 284 284 284 284 283 283 282 282 282 282 281 281 281 280 280 280 280 279 279 278 278 278 277 277 277 276 276 276 275 275 274 274 274 274 274 273 274 273 273 273 272 273 273
290 289 287 289 285 283 281 281 282 279 279 279 272 280 287 284 287 293 292 293 293 291 292 292 290 288 288 288 287 288 287 287 287 287 286 286 285 285 284 284 284 284 284 283 283 283 283 284 284 284 284 284 284 284 284 284 284 283 283 282 282 282 281 281 281 280 280 280 280 280 279 278 278 277 277 277 277 277 276 276 276 275 275 274 274 274 273 273 273 272 272 273 272 272 272 272 272
Wind_Speed
7 6 5 4 1 2 1 5 2 3 5 1 1 2 1 0 1 2 1 2 4 2 0 3 6 4 3 5 11 7 2 2 0 2 2 1 1 1 1 4 6 9 9 7 4 5 5 5 8 9 11 12 12 11 11 11 11 11 11 11 12 12 12 11 12 12 13 14 13 13 12 12 12 13 12 12 13 14 14 14 13 14 15 15 15 15 15 15 14 14 13 13 13 13 12 12 12
5 5 4 2 0 1 1 2 4 2 6 5 1 1 2 2 3 2 4 2 1 1 1 7 9 13 13 13 10 3 6 3 1 2 0 1 1 1 4 2 7 11 7 5 5 5 6 6 7 8 11 11 12 12 11 11 11 10 10 11 11 12 12 12 11 12 13 13 13 13 12 11 11 12 12 12 12 13 14 14 14 13 14 14 14 14 14 14 14 13 13 13 13 12 12 12 12
4 5 4 3 3 3 2 4 1 2 6 3 1 1 1 3 5 3 2 2 2 2 4 6 6 4 2 1 7 4 2 1 3 1 1 2 1 1 3 3 3 7 9 5 5 5 5 6 10 10 12 12 12 12 11 11 11 10 8 9 10 12 13 12 12 12 12 12 12 12 12 11 11 11 12 12 12 13 13 13 14 13 13 13 13 14 14 14 13 13 13 13 13 13 12 12 12
1 0 0 2 1 4 1 4 4 7 5 4 2 1 1 6 4 4 3 2 1 1 0 1 4 3 5 10 3 2 2 2 0 2 0 1 0 4 4 1 3 4 5 6 5 5 5 7 11 11 10 12 12 11 10 10 11 10 8 9 9 10 10 12 12 11 12 11 11 11 11 11 10 11 11 12 12 12 13 13 13 13 12 12 13 14 14 14 13 13 13 12 12 12 12 12 12
2 1 1 3 3 2 2 1 5 3 4 4 5 3 2 3 5 4 1 2 1 3 2 2 4 4 3 5 1 1 1 2 0 2 0 2 2 3 5 2 2 6 7 6 5 4 5 10 9 9 10 11 12 11 10 9 9 9 8 7 9 10 10 11 11 11 12 11 11 11 11 10 10 11 11 11 12 12 12 13 12 11 12 13 13 14 14 13 13 14 13 12 12 12 12 12 12
2 3 2 2 1 2 6 3 5 3 2 4 4 3 4 5 5 4 1 1 1 2 4 4 3 3 4 2 1 2 2 2 0 1 0 2 4 5 5 1 5 7 5 5 5 5 6 10 8 7 11 11 12 11 9 9 8 8 8 8 8 7 9 10 10 10 11 11 11 11 11 10 10 10 11 11 11 11 12 12 12 12 13 13 14 14 14 14 14 14 13 12 12 12 12 12 12
1 4 3 4 2 5 4 6 4 3 1 6 6 4 6 5 5 4 1 1 2 6 2 3 6 5 6 1 1 1 1 4 1 1 1 2 4 5 4 4 7 6 5 5 4 4 6 11 10 9 8 9 10 11 10 9 8 7 7 7 7 7 9 10 9 9 9 10 10 11 10 10 10 10 10 10 11 11 11 12 13 12 13 13 14 13 13 14 14 14 13 13 13 12 12 12 12
1 1 2 3 1 4 3 3 2 3 0 4 4 7 4 5 4 4 2 4 2 2 1 3 2 6 0 3 2 1 4 3 1 1 1 3 3 4 5 6 7 5 4 4 4 4 7 10 10 10 9 8 6 6 11 10 8 7 7 7 7 8 8 9 9 9 8 9 9 10 10 10 10 10 10 10 11 11 11 12 13 13 13 13 13 13 13 13 14 14 14 13 13 13 13 13 12
3 4 0 6 4 3 3 2 1 2 0 1 1 3 5 6 4 4 1 1 1 1 1 3 4 5 2 3 2 2 2 4 4 4 4 3 4 4 5 6 7 5 6 5 5 4 5 7 9 7 8 10 11 9 6 8 8 8 8 8 7 7 8 9 9 9 8 8 8 9 10 10 10 9 9 10 10 10 10 11 12 12 13 13 13 13 13 13 14 14 14 14 13 13 13 13 13
2 3 1 2 4 5 2 1 5 2 2 2 4 4 3 2 2 2 6 2 3 3 2 1 1 4 3 4 0 2 1 4 3 5 4 3 3 4 7 6 5 6 6 5 4 4 3 6 8 9 8 9 11 9 8 6 6 4 6 6 7 6 6 6 9 9 8 8 8 8 9 9 9 9 9 9 10 10 10 10 11 12 13 13 12 13 13 13 14 14 14 14 13 13 13 13 13
1 5 2 4 5 3 4 3 1 1 1 1 1 1 1 2 6 1 0 4 1 2 2 2 6 5 3 1 2 2 2 3 5 2 3 2 4 5 5 5 6 5 6 5 4 4 3 3 7 7 7 8 8 9 10 9 9 5 5 5 4 5 6 5 8 9 8 8 7 9 9 8 9 9 9 9 10 10 10 9 10 11 12 13 12 12 12 13 13 13 13 13 12 12 12 12 13
1 2 2 3 3 4 5 6 2 1 2 1 1 1 1 3 3 3 3 6 1 4 2 2 4 5 3 1 2 2 3 3 1 1 0 1 5 4 5 5 7 7 6 6 6 5 4 3 3 6 6 8 8 8 8 8 8 9 7 6 5 3 3 6 6 8 8 8 7 7 9 8 8 8 8 10 10 10 10 9 10 11 12 12 11 12 12 12 12 12 12 12 12 12 12 12 12
4 1 5 5 1 3 4 6 4 1 0 2 3 0 0 5 3 5 1 3 1 5 3 3 7 3 1 2 1 0 2 1 2 0 1 3 4 4 5 6 7 7 8 7 7 6 6 5 2 1 5 7 6 8 8 8 7 7 8 8 6 5 3 4 4 7 7 6 7 7 7 7 7 8 8 9 9 9 10 9 10 11 11 11 11 11 11 12 11 10 10 11 11 11 11 11 11
3 3 4 1 1 5 7 3 0 4 2 2 2 1 1 2 2 6 6 4 1 2 1 2 3 3 2 2 1 2 2 2 2 1 3 4 5 6 6 5 7 7 7 7 7 5 6 5 4 2 3 3 4 6 6 7 6 7 7 7 6 6 5 4 5 7 8 7 7 6 7 6 7 7 7 8 8 9 8 6 8 11 11 12 11 11 11 11 10 9 9 10 11 11 11 11 11
1 2 4 4 2 3 1 6 10 5 5 2 2 1 2 2 3 0 6 5 2 0 2 2 0 0 4 7 4 4 3 2 1 2 5 5 7 6 6 6 7 7 7 7 6 7 7 6 7 5 6 3 3 2 3 3 9 8 8 6 7 4 6 6 4 5 7 8 8 7 7 7 7 7 7 7 9 9 8 6 7 11 11 12 11 10 10 10 9 8 8 9 10 11 10 10 11
3 5 3 2 1 4 2 2 1 5 3 3 3 3 5 0 2 2 1 2 2 2 2 0 5 0 0 4 1 4 2 2 1 4 6 6 5 5 6 6 6 6 6 7 7 6 5 6 6 5 4 5 4 0 1 1 2 7 7 8 9 6 4 7 5 5 6 7 7 7 7 5 5 4 6 5 8 8 7 5 6 9 11 12 11 10 9 8 8 8 7 8 9 9 9 9 10
2 3 2 3 1 1 1 2 6 4 2 3 2 2 2 1 0 1 1 2 6 3 4 1 1 1 2 2 2 1 1 1 6 7 6 5 5 5 5 6 5 5 5 6 6 6 6 6 5 4 4 5 4 3 1 3 3 4 4 5 8 9 8 9 6 8 6 6 5 5 5 3 2 2 3 3 4 3 4 5 5 7 9 10 9 9 8 7 6 7 6 7 8 8 7 8 9
2 2 4 3 1 1 2 3 8 1 7 5 3 3 5 2 0 0 2 9 5 3 5 2 5 5 1 1 2 2 2 5 5 9 5 4 3 3 5 3 4 4 4 5 5 5 6 6 6 5 5 6 4 2 2 2 3 4 4 4 4 5 6 5 4 4 5 4 5 4 2 2 2 2 2 4 4 4 4 6 5 7 9 9 8 9 8 7 6 6 6 6 6 6 7 5 4
4 2 4 2 3 1 1 2 4 3 4 5 3 1 5 4 5 1 2 0 2 3 3 2 3 3 4 5 4 6 5 6 6 7 6 5 4 4 3 3 4 3 4 5 5 5 4 4 5 6 6 5 5 3 2 1 5 4 4 4 4 5 4 4 3 4 4 5 4 3 2 2 3 3 3 3 3 5 4 6 6 7 10 10 8 7 7 7 5 5 6 5 5 5 4 4 3
0 3 3 0 5 0 0 1 1 3 5 5 3 0 4 2 1 1 2 5 0 6 5 1 1 3 3 1 4 4 6 5 5 8 7 5 4 3 3 3 3 3 2 2 2 3 5 4 5 4 5 6 4 4 3 1 3 3 3 3 3 3 3 3 3 4 4 4 4 3 3 2 2 3 4 6 6 4 3 2 2 6 10 10 8 5 5 5 5 6 7 6 4 4 5 4 3
1 4 2 3 4 2 0 0 1 3 5 5 3 0 2 1 3 1 4 5 3 4 7 8 11 9 7 4 4 4 5 6 5 6 7 6 4 4 3 3 3 1 0 1 3 3 3 4 4 5 5 4 3 3 4 3 1 2 3 3 4 4 4 4 4 4 4 3 4 3 4 4 4 3 3 3 2 3 3 2 1 1 4 5 6 4 3 3 4 3 3 3 3 4 5 2 2
3 1 1 3 2 1 2 1 1 3 1 6 2 4 4 1 1 3 8 4 6 8 7 7 5 11 10 8 4 4 4 5 4 5 5 5 5 4 3 2 2 2 2 4 3 3 4 4 4 4 4 4 2 3 3 2 4 4 3 4 5 4 6 6 5 5 4 4 3 3 4 4 4 5 5 4 4 3 3 3 1 2 2 0 5 4 3 4 3 1 2 3 3 2 3 2 2
2 1 0 1 2 2 2 1 1 4 2 4 2 2 2 1 1 2 5 5 3 3 2 6 8 8 7 6 6 5 4 5 4 5 5 5 4 4 4 2 3 3 2 1 2 3 3 3 4 3 3 3 3 2 2 4 5 5 5 4 8 4 6 6 6 5 5 5 5 5 5 5 6 6 6 6 6 5 5 4 3 3 3 2 2 4 4 4 3 3 4 3 3 3 4 5 5
7 1 1 2 1 3 4 2 4 4 9 4 2 2 2 2 3 0 3 1 1 1 4 7 7 7 7 7 5 7 5 5 4 4 4 5 5 4 4 4 2 1 1 2 3 3 3 5 4 3 2 1 2 4 5 6 6 7 7 7 8 5 6 7 7 5 6 7 6 6 6 5 6 7 6 6 7 7 6 5 5 6 5 4 3 4 5 4 5 5 5 6 6 5 5 6 5
3 1 0 1 0 0 1 2 2 2 1 1 3 2 4 5 2 1 3 3 2 3 5 7 7 7 5 7 6 6 5 4 5 4 3 3 4 3 2 3 3 2 1 2 3 3 4 4 4 3 2 5 6 5 7 6 6 8 7 7 8 5 7 7 6 6 7 6 7 7 6 6 6 6 6 5 6 7 6 7 7 7 7 6 5 7 6 5 6 6 6 6 5 5 5 6 5
0 1 1 1 1 0 0 1 2 3 1 2 1 4 4 5 2 3 4 5 4 4 5 6 7 7 6 6 6 6 6 6 5 5 5 3 3 5 3 3 2 3 0 1 2 3 4 4 3 3 6 7 6 7 6 6 6 8 7 7 7 6 8 7 6 7 6 6 6 7 7 7 7 6 6 5 8 8 7 8 8 7 8 7 7 8 6 6 6 6 6 6 6 6 6 6 5
2 1 0 1 1 2 1 4 4 2 1 3 4 1 1 3 3 7 0 5 4 5 5 4 7 6 5 5 5 4 6 6 7 5 4 3 3 5 3 3 2 1 1 2 2 3 3 3 4 4 6 7 7 8 7 7 7 8 7 6 7 7 7 6 7 7 7 7 6 7 8 7 7 7 6 6 7 8 8 8 7 7 8 7 6 7 6 6 6 7 6 6 6 6 6 5 6
2 1 0 1 5 2 3 2 5 1 2 4 4 3 1 2 1 7 5 6 6 9 5 5 5 5 5 5 4 3 4 4 5 5 7 5 5 5 4 3 2 2 2 2 2 2 2 4 4 5 6 7 10 9 8 8 8 8 7 6 6 7 7 7 7 7 7 7 7 8 7 6 7 7 7 7 8 8 8 8 7 8 7 6 6 7 7 7 7 7 7 6 6 5 5 6 6
0 1 2 4 5 3 3 7 5 5 3 4 4 1 3 1 7 4 4 7 6 7 7 5 5 4 4 4 4 4 5 4 4 4 5 4 4 3 5 3 3 3 1 1 0 2 3 4 5 6 6 9 11 10 9 7 8 7 7 7 6 7 7 7 7 7 7 7 7 8 8 8 7 7 7 8 9 8 7 8 8 8 6 6 6 7 8 6 6 6 7 7 7 6 7 7 4
1 3 1 5 5 4 4 0 1 6 1 5 3 4 7 8 9 1 5 9 5 6 6 5 5 5 4 4 4 4 2 3 4 4 4 4 4 3 5 3 3 3 2 1 2 4 3 3 4 5 6 10 10 9 8 7 8 7 6 7 7 7 6 7 7 6 7 7 7 8 8 7 7 6 7 8 8 8 8 8 8 7 6 6 7 7 8 7 7 8 7 7 6 7 7 6 6
0 1 3 0 3 3 2 0 3 6 2 5 2 4 8 8 6 3 6 9 13 10 7 6 6 5 5 5 5 5 5 3 4 4 4 4 4 3 5 4 4 3 2 2 4 5 5 4 4 5 6 9 10 9 10 9 7 7 8 8 7 6 7 7 7 6 6 6 7 7 7 7 8 9 8 8 8 7 8 8 8 6 6 6 8 6 7 7 8 9 6 6 5 7 5 6 6
1 3 4 4 3 6 8 2 7 7 1 1 3 3 10 11 7 6 7 6 7 9 8 8 7 7 7 5 6 5 5 3 4 4 4 4 4 4 4 4 3 3 4 4 5 5 6 5 5 9 7 10 10 9 10 9 9 8 7 7 7 8 8 8 7 6 6 6 7 7 7 8 9 9 9 8 9 7 8 8 6 6 6 7 7 6 7 8 7 8 7 6 7 7 6 7 6
5 2 4 2 0 5 7 0 2 2 4 1 6 7 3 5 4 3 5 7 6 6 7 8 9 9 8 8 6 5 5 4 3 4 4 5 4 4 4 4 4 4 4 5 6 7 7 6 6 10 9 10 11 10 10 9 10 10 8 8 9 8 8 7 7 6 6 7 6 7 7 9 9 9 9 8 9 8 8 8 6 6 5 7 7 7 8 6 7 7 8 7 5 6 7 6 7
3 1 3 3 2 1 2 5 1 1 5 4 3 2 8 5 1 3 4 6 6 7 9 9 9 8 9 7 7 7 7 7 8 6 6 5 5 4 3 4 4 3 4 6 6 7 8 6 6 9 9 8 10 10 10 10 10 10 9 8 8 9 9 7 6 6 7 6 6 7 7 8 8 9 9 8 9 8 7 8 7 7 6 8 8 8 7 6 6 6 8 7 7 7 8 7 6
1 1 1 6 1 4 6 1 2 4 1 4 3 6 13 13 5 5 7 6 8 11 11 10 9 8 8 8 8 8 7 8 8 6 6 5 5 4 3 4 4 3 4 6 6 7 7 7 7 9 9 9 9 10 11 11 11 10 10 9 9 9 8 7 6 7 6 6 6 6 7 7 8 8 8 8 9 8 8 8 8 6 6 7 8 8 7 7 7 7 7 6 7 8 7 6 4
3 5 5 3 2 3 2 6 3 9 5 5 6 9 13 13 13 7 6 8 10 12 5 4 7 8 8 9 8 9 8 7 5 5 5 4 4 5 3 3 4 4 5 6 7 7 8 8 8 8 8 9 9 10 9 9 9 8 10 8 9 9 7 7 6 6 5 7 6 7 7 7 7 8 8 8 9 8 9 8 8 6 7 7 9 9 7 7 6 8 8 6 6 8 9 7 5
2 2 2 4 4 6 4 3 4 3 1 7 10 10 10 10 9 11 6 5 7 8 9 9 9 11 11 10 11 10 9 8 5 6 5 5 5 4 4 4 4 4 6 8 8 8 8 9 9 10 8 9 9 9 8 8 10 8 8 8 10 6 6 7 7 6 6 6 6 7 7 7 7 8 7 8 9 9 8 7 8 7 6 8 9 8 5 6 5 5 6 8 10 11 11 9 6
2 2 2 7 3 8 5 3 1 0 4 4 5 7 11 13 11 10 2 6 12 14 14 13 12 12 12 12 11 10 7 3 5 4 4 4 5 4 4 4 5 8 5 6 8 8 7 8 8 9 8 7 7 7 7 5 6 8 10 8 9 6 6 7 7 6 6 6 7 6 6 6 7 7 7 7 8 8 8 8 8 7 7 8 8 6 7 7 7 7 4 9 8 10 8 7 8
3 4 3 3 8 4 8 4 2 1 2 9 4 6 11 11 10 8 7 11 10 14 17 18 17 14 12 11 11 9 7 9 7 6 5 6 6 5 4 5 5 6 6 6 7 8 7 7 6 6 6 6 5 5 6 8 7 6 10 7 8 8 5 5 6 5 5 7 7 6 5 6 7 7 6 7 8 8 9 9 8 7 7 5 8 9 8 9 7 7 6 6 7 5 6 7 9
5 3 2 8 3 0 6 2 2 0 3 3 0 5 11 9 7 11 11 11 9 10 14 15 13 15 15 17 17 16 14 12 13 11 10 7 7 6 5 5 6 5 6 6 7 9 7 6 5 6 6 6 6 5 7 9 10 10 10 11 7 8 8 6 8 6 6 8 8 6 6 6 6 7 6 8 8 8 8 9 7 7 7 5 8 9 9 9 8 8 7 6 4 7 5 8 7
4 6 5 5 5 6 7 5 2 3 3 1 5 8 12 10 11 9 8 3 6 10 6 11 9 7 8 5 6 10 16 15 13 10 9 9 9 8 8 6 6 7 7 8 7 8 6 8 7 8 8 7 6 9 11 12 13 11 11 11 11 11 7 6 8 7 5 6 7 7 6 4 6 7 7 7 8 8 7 7 8 7 8 7 8 9 9 7 6 5 6 7 6 6 6 4 8
4 6 11 10 8 6 4 2 3 5 4 2 1 5 6 5 6 10 7 2 5 6 8 12 12 10 7 11 13 8 7 10 16 16 14 12 9 7 6 7 7 7 7 7 7 6 7 7 7 7 7 7 8 10 12 12 12 13 11 12 11 10 9 7 9 9 7 7 7 3 5 5 6 7 6 7 7 7 8 7 8 9 8 8 8 8 7 7 7 8 6 5 6 4 7 5 4
3 7 10 10 7 5 2 1 2 3 5 2 1 5 11 2 5 4 4 2 11 6 6 10 9 10 9 11 11 13 13 10 5 6 9 11 10 9 8 9 8 8 6 6 6 7 7 8 9 8 9 8 8 9 8 11 11 11 12 11 10 11 12 4 4 4 7 6 6 6 5 5 5 7 6 6 6 7 8 8 8 8 8 7 6 8 8 7 6 5 4 7 4 3 4 7 5
6 2 4 5 4 4 5 3 6 6 1 5 1 2 6 15 6 7 10 12 14 13 11 11 11 8 10 9 10 11 12 12 12 12 12 11 11 12 13 10 8 8 6 7 7 7 9 9 9 8 8 9 8 8 7 9 12 9 10 9 8 8 8 11 8 7 5 6 7 6 5 5 5 5 7 6 6 6 7 8 8 8 9 7 7 8 7 6 6 5 6 5 6 7 6 7 5
4 1 6 4 5 4 2 3 3 1 2 8 4 1 5 7 3 3 1 5 11 15 15 14 11 9 9 9 9 11 12 13 13 13 14 14 14 12 10 9 7 6 6 9 8 9 8 8 9 8 9 9 7 7 8 5 9 10 10 10 10 6 9 8 7 6 7 6 8 5 6 6 6 6 5 6 5 6 7 7 7 8 9 8 7 7 6 6 7 6 6 8 7 7 6 4 7
2 5 7 7 7 6 4 2 2 2 1 9 7 5 6 18 4 2 2 2 10 12 14 12 8 11 11 10 8 9 8 8 9 11 12 11 10 9 7 6 6 7 6 7 7 8 8 8 9 10 9 7 7 6 6 6 7 10 11 11 14 11 9 8 7 8 7 6 8 6 6 6 6 6 5 5 7 6 7 7 8 8 8 7 7 6 6 7 6 7 6 6 6 7 5 6 7
6 4 7 6 8 4 3 6 2 2 4 12 8 11 8 12 2 9 7 9 9 9 6 4 1 6 8 9 11 12 12 11 11 10 9 9 7 8 9 10 8 6 5 7 8 8 9 9 10 11 9 7 6 7 7 8 6 8 11 12 14 15 12 12 11 9 8 6 8 6 6 5 4 6 6 6 6 6 7 7 8 7 6 6 7 6 6 6 6 6 6 6 6 7 6 7 6
7 2 4 4 3 6 3 4 4 1 10 3 10 12 12 11 4 6 7 4 3 6 6 6 4 8 10 10 10 10 11 11 10 10 10 10 9 8 9 11 10 9 7 8 8 8 9 9 10 11 8 7 7 8 8 8 7 8 9 12 13 13 15 12 13 13 10 10 9 8 6 6 5 5 5 6 5 5 7 7 6 7 7 6 6 5 5 5 5 5 6 6 6 5 5 6 6
5 6 8 6 4 4 3 3 3 8 9 1 2 1 2 18 11 4 7 9 10 8 7 7 6 7 9 9 10 9 9 9 11 11 11 11 13 14 13 12 10 10 11 11 10 9 9 10 11 13 10 7 9 9 9 8 8 9 11 11 10 10 10 11 11 11 9 10 9 9 8 8 6 7 5 7 4 5 6 7 7 7 6 5 5 5 4 4 5 6 6 6 6 6 5 6 7
6 9 7 6 1 1 4 5 3 6 6 3 1 1 9 2 7 13 20 21 15 8 6 7 6 7 9 11 10 10 10 11 12 12 12 13 13 12 12 13 12 10 10 11 10 10 9 10 10 12 11 8 8 10 10 10 9 9 9 10 10 10 10 10 9 11 9 8 8 9 9 9 8 8 7 6 5 6 6 6 6 6 5 4 4 4 5 4 5 6 6 7 6 4 5 6 6
10 3 12 10 9 7 5 6 6 6 4 3 3 3 8 4 5 2 9 7 6 5 5 5 6 5 5 6 7 8 9 9 10 12 13 13 13 13 13 12 11 11 11 11 10 10 9 10 10 11 11 9 10 11 11 11 9 9 8 8 9 7 9 9 8 8 9 9 7 8 7 7 8 7 7 6 5 7 7 6 6 6 4 4 4 4 5 5 5 5 5 6 5 4 5 6 5
2 2 6 5 10 7 9 4 3 1 2 3 2 7 5 7 2 4 4 6 7 5 4 2 5 2 6 8 12 13 12 11 11 11 11 12 12 12 11 12 11 11 12 10 11 10 10 10 9 11 12 12 12 12 11 11 10 8 8 9 8 8 7 7 7 6 6 7 8 9 8 7 7 7 6 6 5 7 7 7 6 5 4 4 4 4 4 5 5 6 5 5 6 3 6 6 4
4 5 8 7 1 4 3 2 1 1 2 12 4 9 7 8 10 11 11 6 10 4 5 2 4 3 5 9 10 11 12 12 12 13 13 13 11 12 12 12 11 11 12 13 13 11 11 11 11 11 10 9 10 10 11 10 10 9 9 8 8 8 9 10 10 9 8 6 6 7 8 7 7 6 7 6 7 6 7 7 7 6 5 4 4 4 4 5 5 5 6 5 5 4 5 5 4
7 4 8 2 2 4 3 5 2 1 5 7 5 11 7 1 13 2 3 6 10 7 9 5 2 4 8 9 9 12 13 13 11 9 9 12 12 13 11 10 12 13 13 12 12 9 9 9 10 12 11 13 11 11 11 11 12 11 10 9 8 9 9 8 8 9 8 8 6 6 6 8 7 6 6 6 7 8 7 6 7 5 4 3 4 4 4 5 5 6 5 5 3 4 5 4 4
6 7 4 7 5 3 2 3 5 1 6 7 4 4 11 10 11 2 2 8 11 14 10 3 6 7 10 7 8 7 6 7 10 12 12 13 14 14 13 13 10 10 10 10 9 9 8 7 8 10 12 11 12 10 10 9 10 9 9 10 10 9 7 7 7 7 8 9 9 8 8 7 7 6 7 8 8 8 7 7 6 5 4 4 3 4 4 5 5 6 4 5 3 4 5 5 3
2 3 3 1 3 1 6 7 3 5 5 2 9 6 14 8 9 10 10 12 13 13 7 11 14 14 10 10 10 11 12 12 12 12 12 13 13 13 14 14 14 14 12 10 10 8 9 9 9 9 8 7 8 10 10 11 10 9 8 7 6 7 7 8 9 10 9 9 8 9 8 8 8 7 6 7 8 8 8 8 5 5 4 3 4 3 4 5 5 5 5 6 3 4 4 4 3
1 2 5 1 1 1 3 0 4 5 3 4 7 12 8 5 7 10 11 12 13 13 14 13 13 10 9 9 11 12 12 12 13 13 12 12 12 11 11 10 10 8 7 8 10 12 11 9 10 11 13 12 12 11 11 10 10 9 11 11 10 9 9 7 8 7 8 8 7 7 7 7 6 7 7 8 8 8 8 7 6 5 4 4 4 4 4 5 5 5 5 4 3 4 5 3 4
13 16 15 16 11 5 3 8 2 2 3 7 4 16 9 4 4 10 10 11 11 11 10 11 8 6 9 10 10 12 12 12 11 11 10 11 10 10 9 8 7 9 10 11 10 9 11 11 11 10 10 11 12 12 12 11 9 10 11 10 10 8 8 8 8 8 8 7 7 7 6 6 7 7 7 8 8 7 7 7 6 5 4 4 4 4 4 5 6 5 4 3 4 4 4 3 3
Wind_Direction
330 322 312 306 5 102 51 1 94 327 63 27 64 30 210 338 195 55 11 340 66 283 101 23 41 46 114 148 131 122 17 127 274 122 183 232 245 235 41 111 132 143 158 171 164 165 148 153 159 145 146 139 132 130 130 130 130 130 127 124 122 116 114 110 108 105 99 94 90 88 84 81 82 85 85 87 90 93 90 86 81 78 78 72 70 68 63 59 54 50 49 48 46 45 44 46 46
313 321 311 300 149 73 270 122 102 20 41 67 47 88 142 298 46 130 125 151 184 123 120 88 74 81 96 116 132 124 35 23 220 176 214 229 312 305 72 83 151 153 161 161 162 156 150 161 162 146 147 142 137 137 137 137 136 135 132 128 126 121 117 119 110 104 103 99 101 97 93 89 86 83 87 92 96 95 94 92 87 79 77 78 74 71 65 59 54 50 48 48 47 45 46 48 48
323 345 347 25 33 79 91 39 126 70 84 70 294 189 340 69 126 222 205 146 198 209 134 120 107 86 55 148 40 54 211 11 13 8 136 344 115 139 7 32 226 161 157 160 155 157 152 166 157 157 156 150 144 142 142 141 141 140 136 131 126 126 127 119 117 117 109 107 106 105 102 97 92 89 88 91 93 94 93 90 90 88 83 82 77 73 67 60 56 52 50 48 48 46 46 48 50
323 309 106 59 239 28 58 30 91 121 108 181 81 300 173 152 190 197 223 222 228 113 199 27 57 301 104 65 130 65 53 6 114 249 351 344 166 277 306 333 266 173 152 156 159 158 152 166 158 161 160 153 148 144 144 144 143 141 138 136 129 124 124 124 124 119 114 112 108 105 104 102 98 95 93 92 92 95 95 93 95 98 96 86 80 73 68 62 57 54 51 50 50 50 47 47 48
20 317 96 97 105 2 98 114 131 101 122 190 144 262 230 190 176 219 245 269 323 101 75 122 73 342 77 107 19 109 223 287 334 86 243 259 278 280 300 307 190 165 165 158 151 153 159 161 164 164 160 153 151 146 145 146 145 142 139 136 132 130 128 129 127 124 120 117 114 108 105 103 102 98 97 97 99 97 98 98 97 95 91 84 77 71 67 62 58 53 49 49 50 50 48 47 46
59 52 21 89 64 160 48 41 40 62 215 148 115 208 216 203 166 205 200 318 341 48 129 63 151 168 30 2 90 73 304 77 249 14 89 305 310 322 315 243 160 161 165 154 153 156 161 161 156 166 151 166 155 148 148 149 146 141 140 137 133 127 124 124 126 126 124 121 115 112 108 105 104 103 104 107 107 104 101 100 101 98 88 82 74 70 65 61 57 53 50 49 51 51 49 47 47
7 43 354 24 15 52 136 116 108 146 327 153 167 179 197 219 192 126 137 61 2 47 5 127 118 97 79 277 24 69 282 249 59 279 144 318 350 347 334 91 136 158 157 148 149 156 163 161 161 159 155 159 162 149 155 150 144 143 138 135 131 125 129 127 131 131 125 120 116 113 108 104 103 101 101 103 104 105 102 102 103 98 86 78 75 70 63 60 57 54 50 51 50 50 49 48 49
69 112 315 97 345 53 61 146 131 165 168 158 196 149 215 207 180 120 147 95 207 87 2 133 160 100 266 69 146 262 2 16 333 320 325 11 14 2 34 70 95 108 117 121 126 145 160 161 161 161 163 148 128 160 154 152 151 148 143 141 138 134 133 133 132 130 123 120 119 114 110 106 104 101 99 98 101 105 104 106 106 98 91 85 80 72 65 62 58 53 50 51 49 48 47 48 50
355 87 357 64 53 32 60 76 114 235 66 74 180 230 198 184 164 119 125 221 82 49 65 194 205 82 227 49 98 281 323 331 337 20 23 37 38 13 54 61 96 100 101 109 115 130 153 157 141 168 158 149 154 183 150 149 159 156 150 143 143 141 142 139 135 134 129 127 120 116 113 109 107 105 104 104 106 106 105 104 104 101 95 89 81 73 67 63 59 55 53 52 50 47 47 48 47
24 86 354 110 131 58 40 10 83 180 177 208 154 171 181 197 150 116 140 68 134 111 337 334 121 110 144 109 166 325 288 330 312 30 0 29 45 43 57 53 63 91 87 89 93 99 96 134 148 157 155 154 162 155 161 157 137 176 135 133 142 149 148 140 138 139 135 130 128 121 119 119 116 114 111 111 114 114 112 110 109 103 97 90 82 75 71 65 61 59 56 57 56 52 50 49 49
10 8 142 70 43 118 136 215 270 356 197 296 290 250 207 155 115 126 118 142 325 122 192 93 47 118 91 253 202 252 295 323 47 1 319 349 51 46 56 49 57 65 74 54 54 66 84 96 128 139 151 155 154 154 165 172 156 158 146 130 130 121 151 144 143 141 135 138 135 132 127 123 122 123 122 119 118 117 118 118 116 108 99 94 88 81 77 72 69 65 62 64 64 61 59 56 54
25 9 5 111 116 159 218 143 178 238 300 313 143 308 245 123 100 91 118 109 90 58 59 92 178 147 62 76 267 258 302 2 332 300 332 52 65 41 53 55 58 55 61 60 58 43 35 20 66 117 125 153 155 160 163 156 160 164 147 153 154 130 132 144 139 138 143 142 132 132 135 134 127 122 123 124 128 131 126 122 119 114 109 102 97 90 86 82 77 72 71 72 74 73 72 68 61
109 109 79 78 175 92 164 108 194 155 20 250 176 262 141 63 116 157 186 102 31 101 38 325 144 89 130 186 263 319 4 293 283 326 97 89 80 61 56 55 53 50 42 41 48 31 30 30 2 102 115 102 131 149 153 147 155 157 156 167 158 148 169 124 129 140 142 133 137 137 139 135 127 126 126 129 129 135 130 132 130 123 119 115 105 96 90 90 85 78 74 74 77 80 82 78 72
109 174 121 116 35 116 129 162 64 132 248 242 254 289 18 110 239 172 131 83 348 93 217 285 105 123 102 66 242 248 244 266 267 4 119 92 69 65 64 58 51 50 43 47 43 29 27 14 21 25 101 138 151 122 114 147 155 155 160 148 147 150 166 160 130 126 136 137 141 136 137 138 135 133 128 134 143 137 137 145 139 132 128 120 110 102 99 96 95 87 77 73 72 76 81 81 76
110 136 85 115 61 103 226 125 189 154 218 191 252 130 75 352 101 355 130 125 72 51 302 49 178 102 221 151 248 204 218 242 267 55 105 75 58 57 57 58 55 46 38 39 37 30 8 5 23 4 29 31 27 55 89 136 160 152 145 134 126 123 142 145 124 123 142 143 144 143 139 137 144 140 135 137 136 141 148 148 140 136 138 125 121 113 108 104 104 99 85 76 71 68 69 67 64
145 82 78 99 62 131 228 102 47 116 227 174 272 141 90 339 166 104 239 151 165 12 29 243 13 151 54 133 217 180 214 281 292 109 96 82 64 49 50 45 52 44 43 33 26 19 12 17 12 12 11 358 21 35 161 142 147 141 149 149 134 113 143 117 130 112 115 130 138 140 132 131 136 134 132 132 143 147 151 149 148 144 141 130 126 122 112 109 109 106 94 81 75 68 58 54 51
49 82 53 28 100 113 228 139 147 195 239 242 279 207 142 212 251 99 13 35 96 359 45 5 311 42 66 154 181 149 338 77 105 104 96 79 65 42 32 29 28 37 26 27 27 5 5 10 356 9 352 356 359 358 309 166 173 160 158 147 154 164 164 154 154 127 129 118 113 113 108 107 110 116 131 118 115 122 150 147 138 140 138 132 130 127 120 117 114 107 105 91 79 67 45 37 37
58 62 117 41 180 84 191 173 187 221 138 214 182 192 113 145 355 201 50 33 82 57 64 338 20 39 50 30 74 67 34 75 103 111 105 83 62 48 48 15 33 36 21 8 10 10 4 357 350 357 349 348 336 349 343 181 159 191 162 149 156 170 158 147 133 129 131 107 89 91 108 143 162 154 156 152 146 153 170 163 148 136 141 136 140 136 133 124 120 113 111 105 91 75 53 33 28
90 104 80 162 197 261 166 207 206 138 194 170 193 169 140 203 136 232 94 234 117 60 8 31 45 31 51 41 39 52 60 65 96 107 110 105 88 93 81 42 40 25 25 8 357 359 358 337 348 352 334 328 329 340 327 234 169 181 147 149 146 162 151 141 140 129 119 122 140 152 144 180 191 151 159 181 148 159 165 177 153 135 141 142 146 143 137 128 119 111 96 88 84 72 57 40 33
162 109 74 245 210 213 222 159 197 251 149 135 132 184 142 190 139 173 185 175 120 163 158 313 207 176 155 100 62 62 74 75 85 106 104 96 90 103 87 66 51 33 15 3 333 331 351 354 336 329 316 318 321 319 342 337 166 160 123 139 151 89 104 118 128 143 137 139 139 158 155 137 132 110 98 140 125 133 126 137 163 139 142 144 145 137 125 121 94 70 74 66 36 49 65 56 59
279 68 147 196 190 100 275 179 161 101 123 151 135 57 96 253 212 118 159 102 252 257 219 167 196 179 171 159 114 91 90 88 87 96 102 97 89 83 93 92 101 67 316 304 354 342 338 333 330 323 317 311 311 334 334 323 226 156 121 138 123 125 118 94 73 74 97 115 101 102 102 105 106 106 97 88 138 128 135 110 54 350 147 144 143 132 115 89 73 56 52 46 55 60 78 55 64
80 75 205 172 114 102 241 216 300 102 122 102 97 118 196 11 35 124 153 174 220 209 221 205 167 160 157 152 149 107 104 107 105 103 105 108 107 97 80 70 50 34 345 40 348 320 329 316 306 296 305 294 321 319 297 349 91 118 101 103 91 83 89 83 72 66 61 60 66 80 84 78 72 72 67 63 53 77 67 71 75 91 6 108 143 127 113 93 62 44 46 48 72 62 80 78 42
95 333 5 212 219 139 225 199 232 130 98 122 144 212 71 116 215 208 170 195 239 258 201 152 145 148 143 127 127 117 123 121 124 124 125 114 106 100 97 97 81 51 15 32 317 310 310 312 311 306 289 303 328 272 65 68 80 83 82 65 97 65 83 83 73 64 63 64 63 58 70 64 64 62 60 56 60 58 63 45 44 38 63 49 64 107 83 73 74 37 48 64 63 43 42 34 37
101 153 313 17 93 136 169 185 119 126 121 189 204 72 177 156 191 175 198 256 256 52 101 116 119 120 129 124 139 143 144 142 134 128 128 126 124 122 126 108 120 134 72 356 327 318 322 328 314 307 296 182 144 103 90 78 81 86 82 73 70 54 74 68 66 58 63 55 55 64 71 70 71 63 57 62 61 62 54 59 52 47 49 45 33 70 73 51 55 55 60 56 45 27 39 36 37
87 66 247 290 25 279 227 178 145 140 166 108 100 149 230 179 185 85 248 187 168 126 98 101 114 115 111 124 137 142 140 127 117 119 97 110 117 120 110 127 111 113 69 353 323 336 330 321 313 336 88 107 104 103 91 88 89 83 76 75 68 59 71 62 52 49 58 53 53 57 63 77 71 69 62 60 74 67 60 57 55 52 47 39 38 52 54 67 60 52 46 51 47 32 33 39 38
126 174 154 352 299 325 336 300 215 183 170 158 110 242 278 246 317 234 213 182 178 133 97 116 117 117 133 141 147 149 151 142 140 134 143 154 137 103 91 97 119 102 60 343 338 328 318 323 358 40 91 102 103 94 90 85 83 84 75 73 78 63 65 70 60 58 57 55 53 59 60 73 76 76 76 63 72 67 64 58 58 54 52 42 44 55 36 48 58 59 55 49 47 36 36 32 39
149 152 173 179 267 354 215 199 238 219 226 184 185 252 246 335 157 273 131 181 155 123 124 130 129 139 146 148 151 152 146 158 156 147 121 126 121 121 131 109 99 119 45 26 346 337 322 360 30 57 86 96 94 88 84 80 80 79 76 76 73 69 75 76 66 64 62 56 58 59 67 65 78 75 74 71 72 72 64 60 57 59 52 43 50 62 48 53 55 60 55 51 51 48 46 33 39
82 151 322 320 342 246 251 281 259 116 274 173 169 234 285 306 99 230 196 180 165 145 150 150 141 147 149 153 154 156 137 167 150 150 149 150 156 150 142 148 141 96 73 359 324 309 24 39 50 60 85 94 92 89 86 82 83 80 79 78 75 76 72 69 73 67 65 62 62 66 62 63 73 74 74 73 74 75 72 71 62 58 55 47 53 65 68 60 69 68 62 58 52 52 51 41 36
192 80 338 297 359 356 248 210 223 154 240 147 143 350 282 196 226 257 185 149 159 152 160 167 161 162 157 156 149 154 160 173 172 152 174 177 167 161 138 155 156 129 209 258 308 66 64 49 67 62 85 92 93 93 90 90 90 84 87 78 78 79 75 75 74 72 74 70 68 72 75 75 73 80 80 80 78 73 75 75 70 63 57 58 60 65 67 59 53 55 51 47 43 42 42 31 27
112 41 133 338 360 332 301 305 98 149 246 152 149 282 266 247 236 307 160 151 138 145 171 180 176 172 173 167 166 170 182 164 170 168 171 170 171 167 142 169 177 148 173 181 128 81 72 73 77 77 82 93 92 95 97 96 92 92 90 85 77 78 74 77 74 72 72 71 71 69 74 75 78 78 83 80 78 78 73 69 70 65 55 60 60 55 61 53 53 51 44 48 38 45 44 25 29
198 272 55 275 12 279 290 343 176 155 182 182 81 218 279 273 276 237 181 164 160 178 184 185 183 183 182 184 172 181 205 206 176 177 176 172 172 176 149 173 171 162 151 123 114 109 97 87 91 84 89 98 97 103 95 93 90 96 88 84 83 77 79 75 68 65 67 69 73 68 67 74 78 78 71 81 75 74 77 72 61 58 59 61 62 54 69 59 57 53 37 50 48 44 43 38 38
12 42 294 325 148 275 299 261 158 170 318 111 103 281 250 273 272 189 183 175 171 178 187 189 188 189 188 186 184 185 197 202 181 175 174 172 172 176 172 175 164 159 146 135 119 114 104 98 106 103 96 99 100 100 100 100 92 81 85 88 86 76 76 71 65 65 67 67 70 74 69 73 73 74 78 78 82 71 76 74 62 61 63 71 66 59 60 59 60 61 43 42 55 39 40 39 32
348 140 271 282 243 265 336 19 238 143 113 329 172 225 328 295 314 186 183 175 185 185 197 196 195 193 190 190 188 181 173 191 187 180 175 168 187 190 179 163 161 163 143 141 128 119 112 114 112 110 111 109 103 95 98 99 96 94 87 81 79 77 78 75 69 70 71 70 70 75 71 76 77 81 82 79 86 82 77 75 64 61 63 71 69 62 59 47 53 63 52 40 55 64 50 44 39
306 6 218 206 199 276 282 302 262 241 146 206 258 234 242 235 310 213 204 190 183 207 210 206 200 198 196 189 189 184 182 179 187 185 182 176 185 193 194 157 155 153 134 134 133 129 128 124 118 112 111 108 111 112 108 99 95 96 90 82 80 82 76 72 72 71 72 71 74 75 74 77 77 80 80 84 86 82 79 78 70 60 68 72 71 64 60 50 51 55 66 43 43 55 48 44 45
220 184 285 296 259 218 241 313 257 128 264 188 221 236 260 265 263 210 211 199 197 217 212 206 202 201 199 198 195 192 188 189 193 189 179 177 180 193 188 154 153 139 133 131 129 125 122 123 121 118 117 117 114 112 106 103 102 95 90 86 83 79 73 66 66 71 68 74 73 76 77 78 77 77 80 83 88 84 80 75 74 64 70 76 75 69 59 52 56 52 64 56 50 55 62 47 43
197 173 194 182 235 252 195 237 265 173 195 227 199 220 245 252 261 238 214 203 206 226 227 222 216 211 206 202 201 196 195 197 192 189 178 174 179 182 181 174 153 140 139 131 129 131 128 128 129 122 124 125 122 114 116 111 105 106 102 98 81 73 74 76 61 69 66 69 65 70 71 75 75 78 79 82 85 86 83 76 76 65 66 74 73 67 56 50 55 60 49 59 61 54 43 32 27
110 112 135 219 220 276 286 264 256 195 114 227 225 233 245 257 246 255 211 197 227 238 233 224 214 209 207 205 203 198 192 190 184 183 179 177 182 188 183 175 153 147 145 141 137 142 141 140 140 136 139 137 135 131 132 131 119 105 92 98 96 87 90 84 74 63 65 63 64 66 69 74 76 80 76 82 83 83 80 81 78 67 66 70 72 70 66 61 47 59 65 46 51 53 31 12 9
185 219 222 271 194 256 239 244 5 297 173 288 240 242 252 252 258 257 221 171 220 219 226 228 222 213 210 203 200 196 180 114 158 175 189 177 185 191 187 183 160 151 157 145 148 153 154 150 145 141 144 143 138 135 132 118 110 128 124 113 109 99 92 93 90 65 71 67 63 64 71 75 80 81 81 83 84 89 91 84 77 75 73 74 76 75 67 59 52 44 42 65 37 62 50 11 356
234 207 254 289 265 247 282 258 277 277 150 259 272 257 259 256 252 253 220 205 221 214 213 218 213 212 206 202 197 175 162 179 177 183 180 182 185 188 184 187 170 157 149 146 143 137 140 140 140 139 130 124 111 115 123 114 104 103 114 119 115 99 60 77 91 86 77 80 66 63 69 74 80 78 83 88 91 87 88 86 79 78 70 86 86 69 63 58 51 52 45 84 76 47 69 29 22
230 266 226 239 233 33 296 292 353 295 171 268 328 304 278 269 247 244 234 214 230 225 220 226 214 210 202 199 188 183 183 172 182 183 181 185 184 185 187 188 165 154 146 140 148 141 136 136 136 127 115 112 117 108 108 103 103 96 93 106 92 97 114 98 87 76 75 80 69 63 56 71 79 86 84 85 86 84 87 92 97 88 83 78 88 83 66 60 48 47 49 47 78 75 39 34 30
238 208 218 246 235 232 195 253 315 316 320 36 305 300 286 255 258 259 254 261 257 253 228 239 238 228 214 191 192 191 181 176 173 175 183 182 183 189 187 181 159 163 162 152 152 149 143 145 141 133 125 125 126 128 123 119 109 100 100 94 100 95 76 91 93 71 73 82 84 64 59 65 78 81 78 79 88 90 89 95 93 90 85 73 77 79 74 68 62 57 56 66 49 107 81 71 28
268 223 201 218 222 232 265 336 13 13 328 341 78 326 272 277 249 248 277 330 255 250 220 233 222 218 182 187 194 181 191 185 175 178 181 179 176 177 190 178 172 170 170 158 153 142 138 134 129 126 121 128 138 138 137 130 128 129 131 129 127 122 122 123 121 131 119 100 96 94 65 59 74 77 74 81 85 91 89 86 86 86 82 76 73 81 83 73 57 58 40 71 72 44 113 89 67
201 265 195 213 203 201 204 254 67 290 254 300 21 209 280 266 255 239 272 253 253 261 231 242 225 213 199 199 186 183 180 177 183 175 169 172 179 177 185 182 178 171 175 149 138 140 141 139 139 141 139 139 146 145 147 133 132 138 140 136 135 137 132 110 105 98 110 103 95 87 82 62 62 83 77 80 83 84 86 82 83 84 82 82 80 83 78 75 71 64 56 64 59 79 81 81 70
238 248 152 171 168 197 223 190 182 232 264 297 23 132 262 289 262 209 223 241 257 265 259 245 233 214 208 203 188 183 182 180 175 179 179 180 178 179 182 179 176 175 160 145 144 146 150 150 144 145 144 145 155 150 154 148 136 139 130 125 124 125 126 133 132 120 100 107 100 94 91 76 67 71 85 76 78 83 89 85 85 84 84 79 82 76 84 88 86 65 65 71 65 56 70 95 79
220 209 132 144 175 183 128 165 186 204 27 278 295 351 304 244 279 334 143 251 267 260 255 248 229 214 211 201 192 187 183 182 175 173 180 181 181 181 176 175 176 157 166 153 159 155 152 149 144 142 147 148 152 156 147 157 137 137 131 128 118 108 118 123 121 114 114 120 106 100 93 87 78 66 69 82 78 82 82 90 87 86 83 79 81 83 81 80 82 88 75 68 71 63 64 86 90
263 135 89 78 74 66 94 91 99 329 71 255 216 189 225 276 206 153 351 228 258 256 254 254 227 211 201 196 190 181 175 176 183 181 176 177 175 171 170 158 161 171 172 156 151 148 150 147 147 147 149 153 152 150 143 136 138 133 133 135 130 132 132 124 123 125 125 129 112 109 102 96 92 84 74 75 80 77 84 85 85 85 87 89 87 95 95 87 86 81 81 90 88 85 68 76 90
126 82 66 21 42 31 20 62 78 357 260 246 187 208 175 282 179 180 163 216 204 243 281 291 234 199 197 197 186 180 178 177 177 174 175 171 167 159 157 168 170 165 166 160 152 156 154 151 153 151 155 151 152 145 142 137 139 135 136 141 141 141 144 140 136 134 133 130 124 121 114 109 101 97 91 75 77 86 83 80 85 86 85 86 88 87 88 95 93 97 95 88 79 87 86 88 84
133 97 120 57 337 16 31 341 43 210 262 246 194 198 187 228 283 272 243 284 236 214 236 261 236 210 201 194 191 185 176 173 168 164 167 160 153 161 164 170 173 170 166 167 160 158 158 156 156 151 157 156 152 143 137 137 138 137 139 145 147 151 149 149 146 146 151 142 138 132 130 116 104 95 92 95 86 86 91 85 84 86 85 89 87 95 99 102 104 100 90 87 87 83 86 86 87
87 100 88 132 253 34 300 26 271 210 240 284 341 152 350 239 240 257 274 268 271 227 216 229 222 221 208 198 189 177 170 166 170 172 166 169 171 170 176 174 171 175 176 171 167 164 161 159 162 155 161 160 154 149 144 144 144 149 151 150 150 150 149 145 144 143 150 145 144 140 141 131 128 111 118 110 108 101 103 98 92 93 93 89 102 98 102 101 99 91 91 85 83 79 87 91 89
124 145 152 134 208 225 271 259 261 304 292 277 0 134 252 307 279 226 246 249 244 259 229 229 228 222 202 195 177 170 175 177 176 172 174 175 175 177 177 174 176 175 176 173 169 170 166 164 165 159 160 162 156 151 150 151 154 153 154 154 154 153 150 148 147 146 153 149 151 148 147 144 141 141 139 129 136 113 95 99 100 94 96 104 103 102 99 96 93 93 89 87 84 95 90 91 99
202 111 155 188 153 153 226 194 215 225 224 289 271 125 234 125 244 253 246 272 300 268 266 246 251 245 198 171 161 162 170 182 177 177 179 178 178 175 176 177 178 177 175 174 174 175 167 165 164 161 155 164 160 159 155 155 156 156 156 156 155 154 150 147 148 150 151 151 154 143 139 138 137 146 137 139 128 112 109 102 100 102 104 98 95 95 95 91 93 91 85 90 84 79 82 84 82
223 166 59 100 213 148 238 193 179 251 320 331 203 210 193 193 243 278 242 290 286 283 298 271 243 140 138 151 170 179 183 180 181 180 179 181 176 175 177 179 179 178 178 177 178 175 173 170 168 166 163 164 164 161 161 158 158 156 157 159 160 151 144 135 135 142 150 151 151 145 142 142 139 133 133 129 125 119 118 110 104 103 99 93 91 99 98 97 96 93 84 80 78 63 82 79 87
207 112 196 207 165 150 269 16 22 83 32 253 148 275 277 303 277 245 251 237 267 307 287 256 223 180 165 181 182 183 183 181 183 184 181 177 175 182 181 179 178 179 181 184 181 179 175 169 167 164 163 161 165 165 159 159 157 159 165 161 156 152 151 153 156 156 151 147 139 141 139 141 134 134 136 133 126 118 114 114 110 103 95 98 97 92 96 99 96 92 94 89 86 80 82 83 79
97 183 230 121 93 113 148 232 335 62 220 272 151 240 278 56 282 313 230 239 262 274 256 238 219 186 195 197 190 186 187 188 184 180 180 179 179 180 183 185 183 184 183 180 179 176 175 172 171 165 166 166 169 164 162 163 163 166 164 163 162 159 154 152 152 151 148 138 136 134 133 136 147 148 140 137 129 122 113 110 110 105 106 102 107 99 100 103 101 91 94 90 102 98 89 68 64
151 191 201 132 240 238 289 92 259 209 254 281 265 250 257 193 246 76 219 219 242 248 244 230 231 214 213 198 196 192 174 166 179 184 182 183 183 184 183 183 184 184 184 181 171 168 168 172 172 170 172 173 167 165 163 164 166 165 166 164 160 153 150 148 149 146 144 143 147 151 149 144 137 145 142 139 130 122 119 115 114 118 117 119 108 107 110 107 106 106 98 95 80 83 87 79 56
34 66 117 83 100 184 137 200 180 118 268 13 279 94 262 159 224 188 226 207 221 232 230 230 225 214 200 196 189 185 186 188 186 188 190 188 186 184 181 178 181 184 181 178 170 167 174 172 169 170 162 158 160 163 165 167 168 161 157 150 151 148 149 153 155 152 150 151 154 152 148 150 157 148 147 138 131 129 128 124 125 127 126 125 119 114 113 109 101 100 105 95 95 93 86 92 79
184 133 193 167 38 242 118 317 149 172 191 191 283 294 264 226 199 179 210 208 217 212 219 225 230 214 203 197 187 189 192 190 191 191 188 186 185 181 180 181 181 178 179 173 175 176 173 169 176 174 167 167 171 170 168 169 161 161 156 159 155 152 154 153 150 150 145 150 155 153 156 154 143 156 151 142 135 133 129 128 130 136 140 144 136 129 118 112 105 104 100 108 102 100 101 93 95
187 178 191 180 151 144 167 249 64 136 138 244 173 259 271 258 166 201 195 222 211 226 216 231 236 206 200 198 194 191 191 196 192 189 183 183 182 178 175 174 171 173 180 179 178 171 175 180 177 171 171 174 170 171 172 165 165 159 162 156 154 151 150 151 150 147 147 154 159 161 157 154 160 160 155 142 136 132 129 132 134 141 149 145 136 128 124 114 117 116 108 109 107 107 103 103 98